This is the latest recevied weather packets stored in our database for station/object K0CPM-2. If no packets are shown the sender has not sent any weather packets the latest 10 day(s).
| Time | Temp. | Humidity | Pressure | Rain* | Wind** | Luminosity | Snow |
|---|---|---|---|---|---|---|---|
| 1778002265 | 27.78° C | 64% | 1010.5 hPa | 0 mm | - | - | - |
| 1778001359 | 27.78° C | 66% | 1010.7 hPa | 0 mm | - | - | - |
| 1778000446 | 27.78° C | 66% | 1010.4 hPa | 0 mm | - | - | - |
| 1777999544 | 27.78° C | 65% | 1010.5 hPa | 0 mm | - | - | - |
| 1777998644 | 27.78° C | 65% | 1010.6 hPa | 0 mm | - | - | - |
| 1777997741 | 27.22° C | 67% | 1010.5 hPa | 0 mm | - | - | - |
| 1777996840 | 26.67° C | 65% | 1010.5 hPa | 0 mm | - | - | - |
| 1777995949 | 26.67° C | 68% | 1010.7 hPa | 0 mm | - | - | - |
| 1777995036 | 25.56° C | 68% | 1010.8 hPa | 0 mm | - | - | - |
| 1777994135 | 26.11° C | 68% | 1010.7 hPa | 0 mm | - | - | - |
| 1777993241 | 25.56° C | 69% | 1010.8 hPa | 0 mm | - | - | - |
| 1777992337 | 25° C | 68% | 1010.7 hPa | 0 mm | - | - | - |
| 1777991427 | 25° C | 71% | 1010.7 hPa | 0 mm | - | - | - |
| 1777990527 | 25° C | 72% | 1010.7 hPa | 0 mm | - | - | - |
| 1777989632 | 25° C | 72% | 1010.8 hPa | 0 mm | - | - | - |
| 1777988724 | 25° C | 74% | 1010.7 hPa | 0 mm | - | - | - |
| 1777987820 | 23.89° C | 77% | 1010.3 hPa | 0 mm | - | - | - |
| 1777986917 | 22.78° C | 79% | 1010.2 hPa | 0 mm | - | - | - |
| 1777986012 | 22.22° C | 81% | 1010.3 hPa | 0 mm | - | - | - |
| 1777985110 | 21.67° C | 82% | 1010.2 hPa | 0 mm | - | - | - |
| 1777984207 | 21.11° C | 83% | 1009.9 hPa | 0 mm | - | - | - |
| 1777983308 | 20.56° C | 85% | 1009.8 hPa | 0 mm | - | - | - |
| 1777982463 | 20° C | 87% | 1009.7 hPa | 0 mm | - | - | - |
| 1777981557 | 19.44° C | 89% | 1009.8 hPa | 0 mm | - | - | - |
| 1777980658 | 18.33° C | 91% | 1009.9 hPa | 0 mm | - | - | - |
* Rain latest hour (hover to see other rain measurements)
** Current wind speed in m/s (hover to see current wind gust speed)